Weather History for Greenville, ME

Change the Weather History Date:

Monday, March 5, 2012

  Actual Average (KMLT) Record (KMLT)
Temperature  
Mean Temperature 12 °F 24 °F  
Max Temperature 19 °F 35 °F 54 °F (1965)
Min Temperature 6 °F 14 °F -16 °F (1904)
Degree Days  
Heating Degree Days 52 41  
Month to date heating degree days 206  
Since 1 July heating degree days 6258  
Cooling Degree Days 0 0  
Month to date cooling degree days 0  
Year to date cooling degree days 0  
Moisture  
Dew Point 6 °F    
Average Humidity 73    
Maximum Humidity 92    
Minimum Humidity 54    
Precipitation  
Precipitation 0.04 in 0.07 in 1.20 in (1925)
Month to date precipitation 0.37  
Year to date precipitation 5.48  
Sea Level Pressure  
Sea Level Pressure 29.88 in    
Wind  
Wind Speed 9 mph (NW)    
Max Wind Speed 17 mph    
Max Gust Speed 23 mph    
T = Trace of Precipitation, MM = Missing Value Source: NWS Daily Summary

Daily Weather History Graph

Daily Weather History Graph

Search for Another Location

Airport:

Trip Planner

Search our weather history database for the weather conditions in past years. The results will help you decide how hot, cold, wet, or windy it might be!

Date:

Astronomy

Mar. 05, 2012 Rise Set
Actual Time 6:08 AM EST 5:31 PM EST
Civil Twilight 5:39 AM EST 6:01 PM EST
Nautical Twilight 5:04 AM EST 6:35 PM EST
Astronomical Twilight 4:30 AM EST 7:09 PM EST
Moon 2:39 PM EST (3/5) 4:13 AM EST (3/5)
Length of Visible Light 12h 22m
Length of Day
11h 22m
Waxing Gibbous, 91% of the Moon is Illuminated
Mar 5
Waxing Gibbous
Mar 8
Full
Mar 14
Last Quarter
Mar 22
New
Mar 30
First Quarter

Hourly Weather History & Observations

Time (EST) Temp. Windchill Dew Point Humidity Pressure Visibility Wind Dir Wind Speed Gust Speed Precip Events Conditions
12:56 AM 19.9 °F 9.3 °F 16.0 °F 85% 29.55 in - North 9.2 mph - N/A   Unknown
1:56 AM 18.0 °F 6.9 °F 14.0 °F 84% 29.57 in - NNW 9.2 mph - N/A   Unknown
2:56 AM 18.0 °F 6.9 °F 14.0 °F 84% 29.58 in - NNW 9.2 mph - 0.01 in   Unknown
3:56 AM 17.1 °F 5.0 °F 15.1 °F 92% 29.61 in - NW 10.4 mph - 0.01 in   Unknown
4:56 AM 16.0 °F 5.3 °F 14.0 °F 92% 29.63 in - NW 8.1 mph 16.1 mph 0.01 in   Unknown
5:56 AM 14.0 °F 3.9 °F 12.0 °F 92% 29.66 in - NW 6.9 mph - N/A   Unknown
6:56 AM 12.9 °F 1.6 °F 9.0 °F 84% 29.69 in - NW 8.1 mph - 0.01 in   Unknown
7:56 AM 12.0 °F 2.7 °F 7.0 °F 80% 29.73 in - NW 5.8 mph - N/A   Unknown
8:56 AM 12.9 °F 3.8 °F 6.1 °F 74% 29.75 in - Variable 5.8 mph 19.6 mph N/A   Unknown
9:56 AM 14.0 °F 3.9 °F 7.0 °F 74% 29.78 in - Variable 6.9 mph 17.3 mph N/A   Unknown
10:56 AM 15.1 °F -0.1 °F 3.9 °F 61% 29.81 in - NW 15.0 mph 23.0 mph N/A   Unknown
11:56 AM 15.1 °F -0.6 °F 3.0 °F 59% 29.84 in - NNW 16.1 mph 21.9 mph N/A   Unknown
12:56 PM 17.1 °F 1.5 °F 3.9 °F 56% 29.85 in - NNW 17.3 mph - N/A   Unknown
1:56 PM 17.1 °F 3.6 °F 3.0 °F 54% 29.89 in - NNW 12.7 mph 20.7 mph N/A   Unknown
2:56 PM 17.1 °F 5.8 °F 3.9 °F 56% 29.93 in - WNW 9.2 mph 19.6 mph N/A   Unknown
3:56 PM 15.1 °F 0.5 °F 3.0 °F 59% 29.98 in - NW 13.8 mph 21.9 mph N/A   Unknown
4:56 PM 12.9 °F 0.7 °F 3.0 °F 65% 30.02 in - NW 9.2 mph 20.7 mph N/A   Unknown
5:56 PM 10.9 °F -0.8 °F 3.0 °F 70% 30.07 in - NW 8.1 mph - N/A   Unknown
6:56 PM 10.0 °F -2.9 °F 1.9 °F 70% 30.10 in - NNW 9.2 mph - N/A   Unknown
7:56 PM 10.0 °F -0.9 °F 1.9 °F 70% 30.14 in - NNW 6.9 mph - N/A   Unknown
8:56 PM 8.1 °F -6.2 °F 1.0 °F 73% 30.17 in - NNW 10.4 mph - N/A   Unknown
9:56 PM 8.1 °F -3.2 °F 1.0 °F 73% 30.21 in - NNW 6.9 mph - N/A   Unknown
10:56 PM 6.1 °F -7.8 °F -0.0 °F 76% 30.24 in - North 9.2 mph - N/A   Unknown
11:56 PM 7.0 °F -4.5 °F -0.0 °F 73% 30.26 in - North 6.9 mph - N/A   Unknown